User: anonymous   Login
Location: Peebles
(55.6412°N, 3.1714°W)
Time: 00:55:53
(UTC+00:00)
Language:

Cosmos 1674 - Orbit

View from above orbital plane
View from above orbital plane
View from above satellite
View from above satellite

Ground track
Ground track

The orbit data is extracted from the following two-line orbital elements,

1 15944U 85069A   21340.45216407  .00001505  00000-0  66531-4 0  9996
2 15944  82.5084  48.6292 0016135 193.8599 166.2196 15.20831004985763
Epoch (UTC): 06 December 2021 10:51:06
Eccentricity: 0.0016135
inclination: 82.5084°
perigee height: 492 km
apogee height: 514 km
right ascension of ascending node: 48.6292°
argument of perigee: 193.8599°
revolutions per day: 15.20831004
mean anomaly at epoch: 166.2196°
orbit number at epoch: 98576

The dashed part of the orbit path shows where the satellite is in the earth's shadow,  

DLR